This is the latest recevied weather packets stored in our database for station/object SV6LWW-11. If no packets are shown the sender has not sent any weather packets the latest 1 day(s).
| Time | Temp. | Humidity | Pressure | Rain* | Wind** | Luminosity | Snow |
|---|---|---|---|---|---|---|---|
| 1778080046 | 23.33° C | 36% | 1023.9 hPa | - | - | - | - |
| 1778079146 | 23.89° C | 35% | 1023.9 hPa | - | - | - | - |
| 1778073745 | 26.67° C | 21% | 1024.4 hPa | - | - | - | - |
| 1778072845 | 26.67° C | 21% | 1024.7 hPa | - | - | - | - |
| 1778069244 | 26.11° C | 23% | 1025.2 hPa | - | - | - | - |
| 1778068344 | 25.56° C | 28% | 1025.2 hPa | - | - | - | - |
| 1778066758 | 26.11° C | 24% | 1025.1 hPa | - | - | - | - |
| 1778065858 | 26.67° C | 20% | 1025.2 hPa | - | - | - | - |
| 1778062891 | 31.11° C | 21% | 1025.3 hPa | - | - | - | - |
| 1778061990 | 23.89° C | 36% | 1025.5 hPa | - | - | - | - |
| 1778061582 | 20.56° C | 62% | 1025.5 hPa | - | - | - | - |
| 1778060682 | 20.56° C | 63% | 1025.5 hPa | - | - | - | - |
| 1778057081 | 20.56° C | 58% | 1025.6 hPa | - | - | - | - |
| 1778056181 | 20.56° C | 58% | 1025.5 hPa | - | - | - | - |
| 1778055281 | 20.56° C | 57% | 1025.5 hPa | - | - | - | - |
| 1778054381 | 20.56° C | 57% | 1025.4 hPa | - | - | - | - |
| 1778053481 | 20.56° C | 59% | 1025.4 hPa | - | - | - | - |
| 1778050780 | 20.56° C | 61% | 1025.3 hPa | - | - | - | - |
| 1778049880 | 20.56° C | 62% | 1025.4 hPa | - | - | - | - |
| 1778048980 | 20.56° C | 62% | 1025.5 hPa | - | - | - | - |
| 1778048080 | 20.56° C | 62% | 1025.5 hPa | - | - | - | - |
| 1778047180 | 20.56° C | 62% | 1025.5 hPa | - | - | - | - |
| 1778046280 | 20.56° C | 61% | 1025.4 hPa | - | - | - | - |
| 1778043579 | 20.56° C | 61% | 1025.4 hPa | - | - | - | - |
| 1778042679 | 20.56° C | 60% | 1025.4 hPa | - | - | - | - |
* Rain since midnight (hover to see other rain measurements)
** Current wind speed in m/s (hover to see current wind gust speed)